BADBUCHAU Weather Reports


time (UTC)temp
C
wind
direction
speed
KPH
gust
KPH
rain 1hr
cm
rain 24hr
cm
rain mn
cm
humidity
%
barometer
mb
20260507163209 13 5 8.0 0.0 0.00 0.00 0.13 70 1013.7
20260507160211 13 355 8.0 0.0 0.00 0.00 0.13 69 1013.7
20260507153210 13 292 16.1 0.0 0.00 0.00 0.13 70 1013.6
20260507150210 13 223 14.5 0.0 0.00 0.00 0.13 69 1013.6
20260507143212 13 247 19.3 0.0 0.00 0.00 0.13 69 1013.7
20260507140210 12 246 19.3 0.0 0.00 0.00 0.13 73 1014.1
20260507133210 12 279 16.1 0.0 0.00 0.00 0.13 77 1014.0
20260507130210 10 239 14.5 0.0 0.00 0.00 0.13 85 1014.0
20260507123210 11 239 17.7 0.0 0.00 0.00 0.13 82 1014.1
20260507120211 11 286 19.3 0.0 0.00 0.00 0.13 80 1013.9
20260507113210 10 243 19.3 0.0 0.00 0.00 0.13 83 1013.9
20260507110210 10 229 12.9 0.0 0.00 0.00 0.13 90 1013.9
20260507103216 9 233 16.1 0.0 0.00 0.00 0.10 89 1013.9
20260507100212 9 276 9.7 0.0 0.00 0.00 0.08 89 1013.9
20260507093210 9 261 16.1 0.0 0.00 0.00 0.08 88 1013.7
20260507090211 10 199 22.5 0.0 0.00 0.00 0.05 83 1013.3
20260507083212 10 222 16.1 0.0 0.00 0.00 0.05 89 1013.2
20260507080211 9 207 19.3 0.0 0.00 0.00 0.05 91 1013.0
20260507073212 8 195 24.1 0.0 0.00 0.00 0.05 91 1012.9
20260507070212 8 178 17.7 0.0 0.00 0.00 0.05 91 1012.6
20260507063211 8 178 22.5 0.0 0.00 0.00 0.05 91 1012.2
20260507060211 8 206 17.7 0.0 0.00 0.00 0.03 91 1012.0
20260507053211 8 177 22.5 0.0 0.00 0.00 0.00 91 1011.7
20260507050213 7 175 24.1 0.0 0.00 0.00 0.00 90 1011.3
20260507043211 7 175 22.5 0.0 0.00 0.00 0.00 90 1011.0
20260507040216 7 204 19.3 0.0 0.00 0.00 0.00 89 1010.7
20260507033211 7 184 17.7 0.0 0.00 0.00 0.00 88 1010.5
20260507030211 7 171 19.3 0.0 0.00 0.00 0.00 88 1010.4
20260507023211 7 163 19.3 0.0 0.00 0.00 0.00 88 1010.3
20260507020211 7 178 22.5 0.0 0.00 0.00 0.00 88 1010.3
20260507013212 7 195 22.5 0.0 0.00 0.00 0.00 90 1010.2
20260507010211 7 171 25.7 0.0 0.00 0.00 0.00 91 1010.0
20260507003209 7 165 25.7 0.0 0.00 0.00 0.00 91 1009.7
20260507000209 7 167 20.9 0.0 0.00 0.00 0.00 88 1009.7
20260506233209 8 157 20.9 0.0 0.00 0.00 0.00 87 1009.8
20260506230209 8 195 14.5 0.0 0.00 0.00 0.00 87 1009.8
20260506223209 8 175 16.1 0.0 0.00 0.00 0.00 88 1009.6
20260506220209 8 175 22.5 0.0 0.00 0.00 0.00 88 1009.4
20260506213209 8 172 20.9 0.0 0.00 0.00 0.05 88 1009.3
20260506210210 8 184 19.3 0.0 0.00 0.00 0.05 88 1009.1
20260506203210 8 168 9.7 0.0 0.00 0.00 0.05 88 1009.2
20260506200210 8 178 22.5 0.0 0.00 0.00 0.05 88 1009.0
20260506193215 8 200 24.1 0.0 0.00 0.00 0.05 87 1008.4
20260506190211 8 224 27.4 0.0 0.00 0.00 0.05 86 1008.0
20260506183209 9 180 33.8 0.0 0.00 0.00 0.05 83 1007.6
20260506180216 10 179 32.2 0.0 0.00 0.00 0.05 85 1007.4
20260506173210 10 177 20.9 0.0 0.00 0.00 0.05 90 1007.3
20260506170215 9 204 22.5 0.0 0.00 0.00 0.05 90 1006.6